Regional Weather Roundup
Issued by NWS

Home | Current Version | Previous Version | Graphics & Text | Print | Product List | Glossary Off
Versions: 1 2 3 4 5 6 7 8 9 10 11 12 13 14 15 16 17 18 19 20 21 22 23 24 25 26 27 28 29 30 31 32 33 34 35 36 37 38 39 40 41 42 43 44 45 46 47 48 49 50

000
ASUS43 KLSX 070007
RWRMO

WEATHER SUMMARY FOR MISSOURI
NATIONAL WEATHER SERVICE SPRINGFIELD MO
700 PM CDT MON JUL 06 2015

NOTE: "FAIR" INDICATES FEW OR NO CLOUDS BELOW 12,000 FEET WITH NO
       SIGNIFICANT WEATHER AND/OR OBSTRUCTIONS TO VISIBILITY.
       CURRENT SKY AND/OR WEATHER CONDITIONS ARE NOT AVAILABLE FOR
       CHILLICOTHE AND FARMINGTON.

MOZ001>031-035>038-043-044-053-054-070100-
...NORTHERN AND WESTERN MISSOURI...

CITY           SKY/WX    TMP DP  RH WIND       PRES   REMARKS
KANSAS CTY INT TSTM      73  72  96 NE9       29.88S FOG
6HR MIN TEMP:  72; 6HR MAX TEMP:  89; 6HR PCP:  1.28;

KANSAS C DTWN  CLOUDY    72  72 100 CALM      29.87R
6HR MIN TEMP:  72; 6HR MAX TEMP:  91; 6HR PCP:  1.97;

LEE`S SUMMIT   TSTM      71  68  90 E5        29.88F FOG
6HR MIN TEMP:  71; 6HR MAX TEMP:  88; 6HR PCP:  0.64;

ST JOSEPH      LGT RAIN  73  71  93 MISG      29.88R
6HR MIN TEMP:  71; 6HR MAX TEMP:  88; 6HR PCP:  1.42;

CHILLICOTHE      N/A     73  72  96 CALM      29.89R
6HR MIN TEMP:  73; 6HR MAX TEMP:  89; 6HR PCP:  0.71;

KIRKSVILLE     TSTM      76  75  97 VRB6      29.85F VSB 1/2
6HR MIN TEMP:  77; 6HR MAX TEMP:  89; 6HR PCP:  0.46;


$$
MOZ066>068-077>081-088>096-101>105-070100-
...SOUTHWEST MISSOURI...

CITY           SKY/WX    TMP DP  RH WIND       PRES   REMARKS
SPRINGFIELD    CLOUDY    81  73  76 S9        29.94R
6HR MIN TEMP:  81; 6HR MAX TEMP:  86; 6HR PCP: TRACE;

JOPLIN         CLOUDY    83  73  72 SW12      29.91R
6HR MIN TEMP:  83; 6HR MAX TEMP:  88; 6HR PCP: TRACE;


$$
MOZ032>034-039>042-045>050-055>058-069>072-070100-
...CENTRAL MISSOURI...

CITY           SKY/WX    TMP DP  RH WIND       PRES   REMARKS
COLUMBIA       CLOUDY    82  73  74 S9        29.88F
6HR MIN TEMP:  82; 6HR MAX TEMP:  88;

JEFFERSON CITY CLOUDY    84  72  67 S7        29.87S
6HR MIN TEMP:  84; 6HR MAX TEMP:  87;

ROLLA          PTSUNNY   81  73  76 S9        29.92S
6HR MIN TEMP:  76; 6HR MAX TEMP:  85; 6HR PCP: TRACE;

SEDALIA        CLOUDY    83  74  74 SW8       29.89S
6HR MIN TEMP:  83; 6HR MAX TEMP:  90;

WHITEMAN AFB   CLOUDY    82  75  81 S9        29.86F
WARRENSBURG    CLOUDY    81  73  78 NW10      29.87F
OSAGE BEACH    CLOUDY    82  73  74 S7        29.91S

$$
MOZ051-052-059>065-070100-
...EAST CENTRAL MISSOURI...

CITY           SKY/WX    TMP DP  RH WIND       PRES   REMARKS
ST LOUIS INTL  PTSUNNY   85  73  67 S9        29.90R HX  91
6HR MIN TEMP:  79; 6HR MAX TEMP:  90; 6HR PCP:  0.14;

SPIRIT OF STL  PTSUNNY   84  76  76 S5        29.88S HX  93
6HR MIN TEMP:  76; 6HR MAX TEMP:  89; 6HR PCP:  0.02;

ST CHARLES     MOSUNNY   82  73  74 S8        29.88R
6HR MIN TEMP:  80; 6HR MAX TEMP:  90; 6HR PCP: TRACE;


$$
MOZ072>076-082>087-097>100-106>115-070100-
...SOUTH CENTRAL AND SOUTHEAST MISSOURI...

CITY           SKY/WX    TMP DP  RH WIND       PRES   REMARKS
CAPE GIRARDEAU PTSUNNY   83  73  72 S12       29.94S
6HR MIN TEMP:  81; 6HR MAX TEMP:  86;

FARMINGTON     PTSUNNY   82  73  74 S10G20    29.98S
6HR MIN TEMP:  82; 6HR MAX TEMP:  86;

POPLAR BLUFF   PTSUNNY   83  74  74 S10       29.95R
6HR MIN TEMP:  81; 6HR MAX TEMP:  86;

WEST PLAINS    MOSUNNY   82  72  71 S7        29.98R
6HR MIN TEMP:  82; 6HR MAX TEMP:  86;


$$



USA.gov is the U.S. government's official web portal to all federal, state and local government web resources and services.